Regional Weather Roundup
Issued by NWS Burlington, VT

Home | Current Version | Previous Version | Text Only | Print | Product List | Glossary On
Versions: 1 2 3 4 5 6 7 8 9 10 11 12 13 14 15 16 17 18 19 20 21 22 23 24 25 26 27 28 29 30 31 32 33 34 35 36 37 38 39 40 41 42 43 44 45 46 47 48 49 50
000
ASUS41 KBTV 300430
RWRBTV
VERMONT REGIONAL WEATHER ROUNDUP
NATIONAL WEATHER SERVICE BURLINGTON VT
1200 AM EDT MON MAR 30 2015

NOTE: "FAIR" INDICATES FEW OR NO CLOUDS BELOW 12,000 FEET WITH NO
SIGNIFICANT WEATHER AND/OR OBSTRUCTIONS TO VISIBILITY.

* THESE REPORTS ARE NOT UNDER NWS QUALITY CONTROL AND/OR DO NOT
  REPORT WEATHER SUCH AS PRECIPITATION AND FOG.

VTZ001>019-300500-
_____VERMONT_____


CITY           SKY/WX    TMP DP  RH WIND       PRES   REMARKS
BURLINGTON     MOCLDY    35  10  35 S13G23    29.95F
MONTPELIER     MOCLDY    28  11  48 S6        29.98F
MORRISVILLE    MOCLDY    27  15  61 CALM      29.95F
ST. JOHNSBURY*   N/A     27  16  63 MISG      29.96F
LYNDONVILLE*     N/A     29   6  36 SE9       29.95F
MIDDLEBURY*      N/A     34   7  31 S7        29.97F
RUTLAND*       MOCLDY    28  10  47 SE9       29.98F
SPRINGFIELD    PTCLDY    24  16  71 CALM      30.02F
HIGHGATE*        N/A     34  13  42 S6        29.92F
NEWPORT*         N/A     29  11  45 S10       29.92F
BENNINGTON     PTCLDY    27  13  55 CALM      30.00F
SUTTON*          N/A     25 N/A N/A MISG        N/A
GALLUP MILLS*    N/A     19 N/A N/A MISG        N/A
MT. MANSFIELD*   N/A     19 N/A N/A CALM        N/A

_____LAKE CHAMPLAIN_____


CITY           SKY/WX    TMP DP  RH WIND       PRES   REMARKS
BURTON ISLAND*   N/A     32  19  59 S12         N/A
COLCHESTER RF*   N/A     32  21  64 S24         N/A
DIAMOND ISL*     N/A     34  16  47 SE13        N/A

$$

NYZ007-026>031-035-052-083-300500-
_____NORTHERN NEW YORK_____


CITY           SKY/WX    TMP DP  RH WIND       PRES   REMARKS
PLATTSBURGH    CLOUDY    29  17  61 S5        29.92F
SARANAC LAKE   CLOUDY    29   9  43 SW10      29.84F WCI  20
MASSENA        CLOUDY    35  10  35 S14G21    29.85F
OGDENSBURG*    CLEAR     37  12  35 S12G18    29.81F
POTSDAM*       CLOUDY    36  16  44 SW10G18   29.82F
STARK FALLS*     N/A     32 N/A N/A S17         N/A
WATERTOWN      CLOUDY    42  12  29 S14G23    29.84F
FT DRUM        CLOUDY    36  11  35 S16       29.82F
ALBANY         MOCLDY    30  13  49 CALM      30.03F
GLENS FALLS    MOCLDY    28  16  60 CALM      30.01F

$$
NHZ002-005-011-300500-
_____NEW HAMPSHIRE_____


CITY           SKY/WX    TMP DP  RH WIND       PRES   REMARKS
LEBANON        PTCLDY    27  17  66 CALM      30.00F
KEENE          CLEAR     25  16  68 CALM      30.02F
MT WASHINGTON  MOCLDY    12  -9  37 W39         N/A  WCI -12
PLYMOUTH         N/A     24  23  94 CALM      30.00F
WHITEFIELD     PTCLDY    22  15  75 CALM      29.97S

$$

_____REGIONAL QUEBEC LOCATIONS_____


CITY           SKY/WX    TMP DP  RH WIND       PRES   REMARKS
MONTREAL       MOCLDY    32  16  51 SE8       29.88F
QUEBEC CITY    PTCLDY    25  14  63 W5        29.88F
SHERBROOKE     PTCLDY    25  12  58 CALM      29.91F

_____REGIONAL ONTARIO LOCATIONS_____


CITY           SKY/WX    TMP DP  RH WIND       PRES   REMARKS
OTTAWA         CLOUDY    32  12  43 S9        29.80F

______KEY______
VSB  - VISIBILITY IN MILES
WCI  - WIND CHILL INDEX
HX   - HEAT INDEX
$$
NNNN



USA.gov is the U.S. government's official web portal to all federal, state and local government web resources and services.